User: anonymous   Login
Location: Unspecified
(0.0000°N, 0.0000°E)
Time: 16:17:15
(UTC+00:00)
Language:

NTS 1 - Orbit

View from above orbital plane
View from above orbital plane
View from above satellite
View from above satellite

Ground track
Ground track

The orbit data is extracted from the following two-line orbital elements,

1 07369U 74054A   25012.28505042  .00000007  00000-0  00000-0 0  9998
2 07369 124.6578 186.6650 0067259  44.5526 126.1981  3.07214420566612
Epoch (UTC): 12 January 2025 06:50:28
Eccentricity: 0.0067259
inclination: 124.6578°
perigee height: 13475 km
apogee height: 13744 km
right ascension of ascending node: 186.6650°
argument of perigee: 44.5526°
revolutions per day: 3.07214420
mean anomaly at epoch: 126.1981°
orbit number at epoch: 56661

The dashed part of the orbit path shows where the satellite is in the earth's shadow,  

DLR